TEJ501 SAEZ-SCEL

Flight info

Callsign TEJ501
Flight time N/A
Altitude 40000
Route URINO1A URINO UL405 TOSOR UT687 UMKAL UMKAL7C
Aircraft A35K/H-SDE2E3GHIJ3J4J5LM1ORWXY/LB1D1

Departure

Time 2026-04-30 22:55
Airport Ezeiza International Airport - Ministro Pistarini (SAEZ)

Arrival

Time N/A
Airport Comodoro Arturo Merino Benítez International Airport (SCEL)
Time Latitude Longitude Altitude Speed Heading
2026-04-30 22:32 -34.81628 -58.54479 76 ft 0 kts 13°
2026-04-30 22:47 -34.81655 -58.54487 65 ft 3 kts 13°
2026-04-30 22:48 -34.81690 -58.54497 73 ft 3 kts 13°
2026-04-30 22:49 -34.81741 -58.54481 76 ft 3 kts 310°
2026-04-30 22:49 -34.81751 -58.54458 76 ft 0 kts 271°
2026-04-30 22:52 -34.81751 -58.54468 61 ft 3 kts 272°
2026-04-30 22:52 -34.81756 -58.54581 71 ft 10 kts 260°
2026-04-30 22:53 -34.81770 -58.54808 76 ft 17 kts 279°
2026-04-30 22:53 -34.81714 -58.55128 68 ft 22 kts 283°
2026-04-30 22:53 -34.81712 -58.55314 66 ft 23 kts 235°
2026-04-30 22:54 -34.81929 -58.55221 73 ft 19 kts 100°
2026-04-30 22:55 -34.82429 -58.52396 714 ft 167 kts 99°
2026-04-30 22:55 -34.83461 -58.49701 1854 ft 209 kts 126°
2026-04-30 22:56 -34.85611 -58.46505 2657 ft 269 kts 125°
2026-04-30 22:56 -34.90783 -58.45083 5292 ft 281 kts 216°
2026-04-30 22:57 -34.92331 -58.49059 7179 ft 266 kts 282°
2026-04-30 22:57 -34.91402 -58.53402 9348 ft 266 kts 288°
2026-04-30 22:58 -34.90435 -58.57906 10815 ft 294 kts 286°
2026-04-30 22:59 -34.88880 -58.65968 12345 ft 346 kts 284°
2026-04-30 22:59 -34.87243 -58.74643 14885 ft 353 kts 284°